ASIASAT 6

Last updated on Jan. 20, 2021, 6:22 a.m. UTC

1 40141U 14052A   21019.85796727 -.00000357  00000-0  00000-0 0  9992
2 40141   0.0460 266.7056 0000456  27.3564 254.1523  1.00272298 23262
UTC
Height (km)
Latitude
Longitude
Inclination
Orbital Period
UTC large
Height (km)
Speed (km/s)
/
Latitude / Longitude
Inclination (degrees)
Orbital Period (minutes)
Azimuth
Elevation
Range (km)
Doppler Factor
iOS Compass Heading
iOS Angle

Next 30 passes for location: Hong Kong

Rise time Rise Azimuth (degrees) Set time Set Azimuth (degrees) Duration Max altitude (degrees)

No matching passes for this satellites